Voltar ao catálogo

COSMOS 2251 DEB

AtivoLEO
NORAD 35706·DEBRIS·🇷🇺 Russia

Lançado Jun 16, 1993 de Plesetsk Cosmodrome

Loading…

Próximas Passagens (próximas 24 horas)

TLE

AtualizadoSource: Space-Track

Época: Sep 14, 2026, 22:17 UTC

1 35706U 93036AQB 26257.92855015  .00000831  00000-0  68296-3 0  9995
2 35706  73.8872 326.1593 0345524 325.6058  32.3111 13.66596771658347

Acompanhe COSMOS 2251 DEB em tempo real com AllMySat

Download on the App Store